Погода в Великодворском

Россия / Владимирская область     55°14′57″N   40°39′54″E
темп.,
°C
ветер,
м/с
пор.,
м/с
влажн.,
%
обл.,
%
осадки,
мм/ч
давл.,
гПа
погр.,
м
20 сентября, пн
пн2000:00+6в61375100 0.6 1020696
03:00+4в61491100 5.0 1020694
06:00+4в71594100 7.4 1019647
09:00+5в71794100 14.3 1019753
12:00+5в71594100 3.3 1019931
15:00+5в71593100 5.3 10191005
18:00+6в71493100 0.8 10191019
21:00+6вюв61492100 1.9 1019999
21 сентября, вт
вт2100:00+6в61491100 0.3 1018955
03:00+6в61394100 2.4 1017815
06:00+6в51294100 0.6 1016715
09:00+6в51195100 3.2 1016714
12:00+6в51095100 0.6 1015588
15:00+6в41095100 1.3 1014572
18:00+6в41097100 1.7 1013552
21:00+6всв4997100 3.8 1013481
22 сентября, ср
ср2200:00+7всв3897100 1.2 1012425
03:00+6всв3897100 3.5 1011419
06:00+6всв3797100 2.1 1011444
09:00+6св3697100 3.9 1011424
12:00+6всв2496100 0.8 1012362
15:00+9всв2386100 0.8 1012615
18:00+8ссв2595100 0.0 1013188
21:00+8ссв249999 0.0 1013160
23 сентября, чт
чт2300:00+8ююв2599100 1.1 1013287
03:00+7ю379434 2.3 1014291
06:00+6юв2795100 0.0 1015244
09:00+7юв2792100 0.0 1016318
12:00+11юв3572100 0.0 1017803
15:00+12юв3566100 0.0 1016978
18:00+9вюв2281100 0.0 101637
21:00+8ююв2392100 0.0 101683
24 сентября, пт
пт2400:00+7ю119585 0.0 101613
03:00+6юв239696 0.0 101550
06:00+6ююв2496100 0.0 1015107
09:00+9ююв2585100 0.0 1014336
12:00+10ююв357798 0.3 1012785
15:00+11ю3474100 0.8 1011824
18:00+9ююв3692100 0.6 1011235
21:00+8ююв259595 0.9 1010149